Date_Time,Julian_Date,Latitude,Longitude,Instrument_Depth,U,V,Speed,Direction
(yyyy-mm-dd hh:mn:ss UTC),(JD),(+ deg. North),(+ deg. East),(m),(cm/s),(cm/s),(cm/s),(deg True)
1987-04-05 16:00:00 UTC,2446891.166667,27.4683,-91.9931,0100,4.68,24.86,25.2967,10.6614
1987-04-05 16:30:00 UTC,2446891.187500,27.4683,-91.9931,0100,5.51,24.49,25.1022,12.6798
1987-04-05 17:00:00 UTC,2446891.208333,27.4683,-91.9931,0100,4.54,24.08,24.5042,10.6771
1987-04-05 17:30:00 UTC,2446891.229167,27.4683,-91.9931,0100,4.73,22.92,23.4030,11.6604
1987-04-05 18:00:00 UTC,2446891.250000,27.4683,-91.9931,0100,1.89,23.12,23.1971,4.6734
1987-04-05 18:30:00 UTC,2446891.270833,27.4683,-91.9931,0100,1.59,24.75,24.8010,3.6758
1987-04-05 19:00:00 UTC,2446891.291667,27.4683,-91.9931,0100,0.25,21.50,21.5015,0.6662
1987-04-05 19:30:00 UTC,2446891.312500,27.4683,-91.9931,0100,-0.98,23.98,24.0000,357.6598
1987-04-05 20:00:00 UTC,2446891.333333,27.4683,-91.9931,0100,0.96,20.58,20.6024,2.6708
1987-04-05 20:30:00 UTC,2446891.354167,27.4683,-91.9931,0100,-0.12,21.30,21.3003,359.6772
1987-04-05 21:00:00 UTC,2446891.375000,27.4683,-91.9931,0100,-0.87,21.38,21.3977,357.6698
1987-04-05 21:30:00 UTC,2446891.395833,27.4683,-91.9931,0100,-1.98,21.21,21.3022,354.6668
1987-04-05 22:00:00 UTC,2446891.416667,27.4683,-91.9931,0100,-3.14,21.47,21.6984,351.6794
1987-04-05 22:30:00 UTC,2446891.437500,27.4683,-91.9931,0100,-3.25,22.16,22.3971,351.6564
1987-04-05 23:00:00 UTC,2446891.458333,27.4683,-91.9931,0100,-2.36,21.27,21.4005,353.6687
1987-04-05 23:30:00 UTC,2446891.479167,27.4683,-91.9931,0100,-1.62,21.34,21.4014,355.6588
1987-04-06 00:00:00 UTC,2446891.500000,27.4683,-91.9931,0100,-1.68,22.24,22.3034,355.6801
1987-04-06 00:30:00 UTC,2446891.520833,27.4683,-91.9931,0100,-0.90,22.18,22.1983,357.6764
1987-04-06 01:00:00 UTC,2446891.541667,27.4683,-91.9931,0100,-0.93,22.88,22.8989,357.6724
1987-04-06 01:30:00 UTC,2446891.562500,27.4683,-91.9931,0100,3.12,23.19,23.3989,7.6626
1987-04-06 02:00:00 UTC,2446891.583333,27.4683,-91.9931,0100,0.30,25.50,25.5018,0.6740
1987-04-06 02:30:00 UTC,2446891.604167,27.4683,-91.9931,0100,1.21,25.97,25.9982,2.6676
1987-04-06 03:00:00 UTC,2446891.625000,27.4683,-91.9931,0100,3.26,24.18,24.3988,7.6784
1987-04-06 03:30:00 UTC,2446891.645833,27.4683,-91.9931,0100,2.86,24.43,24.5968,6.6772
1987-04-06 04:00:00 UTC,2446891.666667,27.4683,-91.9931,0100,2.96,22.00,22.1982,7.6629
1987-04-06 04:30:00 UTC,2446891.687500,27.4683,-91.9931,0100,3.39,22.24,22.4969,8.6668
1987-04-06 05:00:00 UTC,2446891.708333,27.4683,-91.9931,0100,2.83,24.23,24.3947,6.6618
1987-04-06 05:30:00 UTC,2446891.729167,27.4683,-91.9931,0100,5.82,22.25,22.9986,14.6586
1987-04-06 06:00:00 UTC,2446891.750000,27.4683,-91.9931,0100,6.86,22.90,23.9054,16.6763
1987-04-06 06:30:00 UTC,2446891.770833,27.4683,-91.9931,0100,3.31,19.42,19.7001,9.6727
1987-04-06 07:00:00 UTC,2446891.791667,27.4683,-91.9931,0100,5.00,22.24,22.7951,12.6706
1987-04-06 07:30:00 UTC,2446891.812500,27.4683,-91.9931,0100,4.56,20.29,20.7961,12.6663
1987-04-06 08:00:00 UTC,2446891.833333,27.4683,-91.9931,0100,3.72,24.42,24.7017,8.6615
1987-04-06 08:30:00 UTC,2446891.854167,27.4683,-91.9931,0100,2.69,23.04,23.1965,6.6593
1987-04-06 09:00:00 UTC,2446891.875000,27.4683,-91.9931,0100,0.26,22.40,22.4015,0.6650
1987-04-06 09:30:00 UTC,2446891.895833,27.4683,-91.9931,0100,1.50,23.35,23.3981,3.6756
1987-04-06 10:00:00 UTC,2446891.916667,27.4683,-91.9931,0100,-0.12,21.50,21.5003,359.6802
1987-04-06 10:30:00 UTC,2446891.937500,27.4683,-91.9931,0100,-2.92,22.71,22.8970,352.6732
1987-04-06 11:00:00 UTC,2446891.958333,27.4683,-91.9931,0100,1.10,23.57,23.5957,2.6720
1987-04-06 11:30:00 UTC,2446891.979167,27.4683,-91.9931,0100,1.10,23.57,23.5957,2.6720
1987-04-06 12:00:00 UTC,2446892.000000,27.4683,-91.9931,0100,1.82,22.33,22.4040,4.6596
1987-04-06 12:30:00 UTC,2446892.020833,27.4683,-91.9931,0100,-0.53,22.69,22.6962,358.6619
1987-04-06 13:00:00 UTC,2446892.041667,27.4683,-91.9931,0100,-0.14,23.50,23.5004,359.6587
1987-04-06 13:30:00 UTC,2446892.062500,27.4683,-91.9931,0100,-2.71,24.45,24.5997,353.6752
1987-04-06 14:00:00 UTC,2446892.083333,27.4683,-91.9931,0100,-3.02,23.51,23.7032,352.6801
1987-04-06 14:30:00 UTC,2446892.104167,27.4683,-91.9931,0100,0.71,24.39,24.4003,1.6674
1987-04-06 15:00:00 UTC,2446892.125000,27.4683,-91.9931,0100,-1.94,20.81,20.9002,354.6740
1987-04-06 15:30:00 UTC,2446892.145833,27.4683,-91.9931,0100,0.71,24.19,24.2004,1.6812
1987-04-06 16:00:00 UTC,2446892.166667,27.4683,-91.9931,0100,3.07,22.79,22.9958,7.6720
1987-04-06 16:30:00 UTC,2446892.187500,27.4683,-91.9931,0100,3.63,23.82,24.0950,8.6648
1987-04-06 17:00:00 UTC,2446892.208333,27.4683,-91.9931,0100,2.11,21.30,21.4043,5.6573
1987-04-06 17:30:00 UTC,2446892.229167,27.4683,-91.9931,0100,1.94,23.72,23.7992,4.6757
1987-04-06 18:00:00 UTC,2446892.250000,27.4683,-91.9931,0100,3.54,23.23,23.4982,8.6646
1987-04-06 18:30:00 UTC,2446892.270833,27.4683,-91.9931,0100,3.83,20.34,20.6975,10.6639
1987-04-06 19:00:00 UTC,2446892.291667,27.4683,-91.9931,0100,3.48,20.41,20.7046,9.6761
1987-04-06 19:30:00 UTC,2446892.312500,27.4683,-91.9931,0100,3.07,22.79,22.9958,7.6720
1987-04-06 20:00:00 UTC,2446892.333333,27.4683,-91.9931,0100,2.09,21.10,21.2033,5.6568
1987-04-06 20:30:00 UTC,2446892.354167,27.4683,-91.9931,0100,4.78,21.27,21.8005,12.6656
1987-04-06 21:00:00 UTC,2446892.375000,27.4683,-91.9931,0100,2.62,19.42,19.5959,7.6835
1987-04-06 21:30:00 UTC,2446892.395833,27.4683,-91.9931,0100,0.96,20.58,20.6024,2.6708
1987-04-06 22:00:00 UTC,2446892.416667,27.4683,-91.9931,0100,0.89,19.18,19.2006,2.6568
1987-04-06 22:30:00 UTC,2446892.437500,27.4683,-91.9931,0100,1.09,16.97,17.0050,3.6751
1987-04-06 23:00:00 UTC,2446892.458333,27.4683,-91.9931,0100,0.21,17.60,17.6013,0.6836
1987-04-06 23:30:00 UTC,2446892.479167,27.4683,-91.9931,0100,-0.11,18.70,18.7003,359.6630
1987-04-07 00:00:00 UTC,2446892.500000,27.4683,-91.9931,0100,1.09,16.97,17.0050,3.6751
1987-04-07 00:30:00 UTC,2446892.520833,27.4683,-91.9931,0100,-0.10,17.70,17.7003,359.6763
1987-04-07 01:00:00 UTC,2446892.541667,27.4683,-91.9931,0100,-1.68,18.02,18.0981,354.6737
1987-04-07 01:30:00 UTC,2446892.562500,27.4683,-91.9931,0100,-0.70,17.09,17.1043,357.6545
1987-04-07 02:00:00 UTC,2446892.583333,27.4683,-91.9931,0100,-1.98,15.37,15.4970,352.6595
1987-04-07 02:30:00 UTC,2446892.604167,27.4683,-91.9931,0100,-1.25,16.55,16.5971,355.6807
1987-04-07 03:00:00 UTC,2446892.625000,27.4683,-91.9931,0100,-4.33,16.96,17.5040,345.6779
1987-04-07 03:30:00 UTC,2446892.645833,27.4683,-91.9931,0100,-5.45,14.72,15.6965,339.6832
1987-04-07 04:00:00 UTC,2446892.666667,27.4683,-91.9931,0100,-3.22,16.08,16.3992,348.6764
1987-04-07 04:30:00 UTC,2446892.687500,27.4683,-91.9931,0100,-3.83,16.15,16.5979,346.6587
1987-04-07 05:00:00 UTC,2446892.708333,27.4683,-91.9931,0100,-4.13,17.42,17.9029,346.6624
1987-04-07 05:30:00 UTC,2446892.729167,27.4683,-91.9931,0100,-4.83,15.46,16.1969,342.6502
1987-04-07 06:00:00 UTC,2446892.750000,27.4683,-91.9931,0100,-5.96,20.34,21.1952,343.6684
1987-04-07 06:30:00 UTC,2446892.770833,27.4683,-91.9931,0100,-5.17,17.66,18.4012,343.6825
1987-04-07 07:00:00 UTC,2446892.791667,27.4683,-91.9931,0100,-5.02,19.67,20.3005,345.6831
1987-04-07 07:30:00 UTC,2446892.812500,27.4683,-91.9931,0100,-2.23,20.08,20.2034,353.6629
1987-04-07 08:00:00 UTC,2446892.833333,27.4683,-91.9931,0100,-1.56,20.54,20.5992,355.6568
1987-04-07 08:30:00 UTC,2446892.854167,27.4683,-91.9931,0100,0.59,20.19,20.1986,1.6738
1987-04-07 09:00:00 UTC,2446892.875000,27.4683,-91.9931,0100,2.86,18.78,18.9965,8.6590
1987-04-07 09:30:00 UTC,2446892.895833,27.4683,-91.9931,0100,1.42,22.15,22.1955,3.6681
1987-04-07 10:00:00 UTC,2446892.916667,27.4683,-91.9931,0100,-0.79,19.48,19.4960,357.6777
1987-04-07 10:30:00 UTC,2446892.937500,27.4683,-91.9931,0100,-2.90,17.66,17.8965,350.6745
1987-04-07 11:00:00 UTC,2446892.958333,27.4683,-91.9931,0100,-0.12,20.90,20.9003,359.6710
1987-04-07 11:30:00 UTC,2446892.979167,27.4683,-91.9931,0100,0.24,20.50,20.5014,0.6707
1987-04-07 12:00:00 UTC,2446893.000000,27.4683,-91.9931,0100,0.51,17.39,17.3975,1.6798
1987-04-07 12:30:00 UTC,2446893.020833,27.4683,-91.9931,0100,1.29,20.16,20.2012,3.6613
1987-04-07 13:00:00 UTC,2446893.041667,27.4683,-91.9931,0100,0.90,19.38,19.4009,2.6589
1987-04-07 13:30:00 UTC,2446893.062500,27.4683,-91.9931,0100,1.90,19.11,19.2042,5.6779
1987-04-07 14:00:00 UTC,2446893.083333,27.4683,-91.9931,0100,5.57,21.28,21.9969,14.6680
1987-04-07 14:30:00 UTC,2446893.104167,27.4683,-91.9931,0100,6.48,23.11,24.0013,15.6634
1987-04-07 15:00:00 UTC,2446893.125000,27.4683,-91.9931,0100,8.08,21.43,22.9026,20.6585
1987-04-07 15:30:00 UTC,2446893.145833,27.4683,-91.9931,0100,6.31,21.08,22.0041,16.6643
1987-04-07 16:00:00 UTC,2446893.166667,27.4683,-91.9931,0100,8.84,18.39,20.4044,25.6734
1987-04-07 16:30:00 UTC,2446893.187500,27.4683,-91.9931,0100,8.15,18.59,20.2980,23.6730
1987-04-07 17:00:00 UTC,2446893.208333,27.4683,-91.9931,0100,9.20,18.32,20.5003,26.6650
1987-04-07 17:30:00 UTC,2446893.229167,27.4683,-91.9931,0100,9.36,19.47,21.6030,25.6754
1987-04-07 18:00:00 UTC,2446893.250000,27.4683,-91.9931,0100,13.00,18.12,22.3010,35.6571
1987-04-07 18:30:00 UTC,2446893.270833,27.4683,-91.9931,0100,12.92,19.39,23.3002,33.6764
1987-04-07 19:00:00 UTC,2446893.291667,27.4683,-91.9931,0100,12.92,19.39,23.3002,33.6764
1987-04-07 19:30:00 UTC,2446893.312500,27.4683,-91.9931,0100,12.40,17.93,21.8001,34.6669
1987-04-07 20:00:00 UTC,2446893.333333,27.4683,-91.9931,0100,11.55,16.70,20.3050,34.6684
1987-04-07 20:30:00 UTC,2446893.354167,27.4683,-91.9931,0100,11.66,16.86,20.4991,34.6669
1987-04-07 21:00:00 UTC,2446893.375000,27.4683,-91.9931,0100,10.36,16.16,19.1957,32.6635
1987-04-07 21:30:00 UTC,2446893.395833,27.4683,-91.9931,0100,11.82,15.88,19.7961,36.6615
1987-04-07 22:00:00 UTC,2446893.416667,27.4683,-91.9931,0100,11.88,15.96,19.8961,36.6626
1987-04-07 22:30:00 UTC,2446893.437500,27.4683,-91.9931,0100,10.70,16.06,19.2980,33.6736
1987-04-07 23:00:00 UTC,2446893.458333,27.4683,-91.9931,0100,11.92,15.44,19.5059,37.6689
1987-04-07 23:30:00 UTC,2446893.479167,27.4683,-91.9931,0100,12.32,14.86,19.3029,39.6612
1987-04-08 00:00:00 UTC,2446893.500000,27.4683,-91.9931,0100,10.09,14.05,17.2977,35.6840
1987-04-08 00:30:00 UTC,2446893.520833,27.4683,-91.9931,0100,11.68,14.09,18.3017,39.6573
1987-04-08 01:00:00 UTC,2446893.541667,27.4683,-91.9931,0100,10.45,14.04,17.5021,36.6604
1987-04-08 01:30:00 UTC,2446893.562500,27.4683,-91.9931,0100,10.18,12.73,16.2999,38.6488
1987-04-08 02:00:00 UTC,2446893.583333,27.4683,-91.9931,0100,10.70,11.21,15.4969,43.6666
1987-04-08 02:30:00 UTC,2446893.604167,27.4683,-91.9931,0100,11.93,9.10,15.0045,52.6642
1987-04-08 03:00:00 UTC,2446893.625000,27.4683,-91.9931,0100,12.12,4.98,13.1032,67.6627
1987-04-08 03:30:00 UTC,2446893.645833,27.4683,-91.9931,0100,11.38,4.67,12.3009,67.6883
1987-04-08 04:00:00 UTC,2446893.666667,27.4683,-91.9931,0100,12.02,5.69,13.2987,64.6682
1987-04-08 04:30:00 UTC,2446893.687500,27.4683,-91.9931,0100,11.52,3.37,12.0028,73.6940
1987-04-08 05:00:00 UTC,2446893.708333,27.4683,-91.9931,0100,10.13,3.75,10.8018,69.6861
1987-04-08 05:30:00 UTC,2446893.729167,27.4683,-91.9931,0100,10.69,3.34,11.1996,72.6490
1987-04-08 06:00:00 UTC,2446893.750000,27.4683,-91.9931,0100,9.29,5.88,10.9945,57.6687
1987-04-08 06:30:00 UTC,2446893.770833,27.4683,-91.9931,0100,7.87,7.97,11.2008,44.6383
1987-04-08 07:00:00 UTC,2446893.791667,27.4683,-91.9931,0100,7.30,8.49,11.1969,40.6901
1987-04-08 07:30:00 UTC,2446893.812500,27.4683,-91.9931,0100,4.42,10.07,10.9973,23.6980
1987-04-08 08:00:00 UTC,2446893.833333,27.4683,-91.9931,0100,4.34,9.89,10.8004,23.6932
1987-04-08 08:30:00 UTC,2446893.854167,27.4683,-91.9931,0100,4.10,10.32,11.1046,21.6673
1987-04-08 09:00:00 UTC,2446893.875000,27.4683,-91.9931,0100,3.46,12.32,12.7966,15.6871
1987-04-08 09:30:00 UTC,2446893.895833,27.4683,-91.9931,0100,4.67,13.83,14.5972,18.6584
1987-04-08 10:00:00 UTC,2446893.916667,27.4683,-91.9931,0100,4.39,14.66,15.3032,16.6706
1987-04-08 10:30:00 UTC,2446893.937500,27.4683,-91.9931,0100,2.73,13.22,13.4989,11.6679
1987-04-08 11:00:00 UTC,2446893.958333,27.4683,-91.9931,0100,4.67,13.83,14.5972,18.6584
1987-04-08 11:30:00 UTC,2446893.979167,27.4683,-91.9931,0100,-1.10,14.56,14.6015,355.6795
1987-04-08 12:00:00 UTC,2446894.000000,27.4683,-91.9931,0100,6.85,14.90,16.3992,24.6897
1987-04-08 12:30:00 UTC,2446894.020833,27.4683,-91.9931,0100,5.72,16.01,17.0011,19.6606
1987-04-08 13:00:00 UTC,2446894.041667,27.4683,-91.9931,0100,5.86,16.38,17.3967,19.6848
1987-04-08 13:30:00 UTC,2446894.062500,27.4683,-91.9931,0100,3.51,15.61,15.9998,12.6725
1987-04-08 14:00:00 UTC,2446894.083333,27.4683,-91.9931,0100,2.56,16.81,17.0038,8.6591
1987-04-08 14:30:00 UTC,2446894.104167,27.4683,-91.9931,0100,4.24,15.12,15.7032,15.6647
1987-04-08 15:00:00 UTC,2446894.125000,27.4683,-91.9931,0100,6.49,17.22,18.4024,20.6508
1987-04-08 15:30:00 UTC,2446894.145833,27.4683,-91.9931,0100,6.34,18.76,19.8024,18.6728
1987-04-08 16:00:00 UTC,2446894.166667,27.4683,-91.9931,0100,10.17,19.40,21.9041,27.6647
1987-04-08 16:30:00 UTC,2446894.187500,27.4683,-91.9931,0100,11.32,19.09,22.1939,30.6671
1987-04-08 17:00:00 UTC,2446894.208333,27.4683,-91.9931,0100,11.29,18.30,21.5024,31.6721
1987-04-08 17:30:00 UTC,2446894.229167,27.4683,-91.9931,0100,13.06,18.20,22.4010,35.6626
1987-04-08 18:00:00 UTC,2446894.250000,27.4683,-91.9931,0100,14.62,17.63,22.9033,39.6678
1987-04-08 18:30:00 UTC,2446894.270833,27.4683,-91.9931,0100,15.29,17.18,22.9986,41.6687
1987-04-08 19:00:00 UTC,2446894.291667,27.4683,-91.9931,0100,17.24,16.26,23.6982,46.6756
1987-04-08 19:30:00 UTC,2446894.312500,27.4683,-91.9931,0100,16.88,15.92,23.2030,46.6765
1987-04-08 20:00:00 UTC,2446894.333333,27.4683,-91.9931,0100,16.60,14.59,22.1004,48.6873
1987-04-08 20:30:00 UTC,2446894.354167,27.4683,-91.9931,0100,16.34,14.88,22.1000,47.6775
1987-04-08 21:00:00 UTC,2446894.375000,27.4683,-91.9931,0100,16.63,13.15,21.2009,51.6652
1987-04-08 21:30:00 UTC,2446894.395833,27.4683,-91.9931,0100,16.86,13.82,21.8003,50.6588
1987-04-08 22:00:00 UTC,2446894.416667,27.4683,-91.9931,0100,15.47,13.60,20.5981,48.6806
1987-04-08 22:30:00 UTC,2446894.437500,27.4683,-91.9931,0100,14.42,12.68,19.2021,48.6737
1987-04-08 23:00:00 UTC,2446894.458333,27.4683,-91.9931,0100,14.36,10.18,17.6023,54.6666
1987-04-08 23:30:00 UTC,2446894.479167,27.4683,-91.9931,0100,13.49,11.46,17.7006,49.6515
1987-04-09 00:00:00 UTC,2446894.500000,27.4683,-91.9931,0100,13.87,9.47,16.7946,55.6760
1987-04-09 00:30:00 UTC,2446894.520833,27.4683,-91.9931,0100,13.79,9.07,16.5054,56.6662
1987-04-09 01:00:00 UTC,2446894.541667,27.4683,-91.9931,0100,14.61,7.88,16.5996,61.6595
1987-04-09 01:30:00 UTC,2446894.562500,27.4683,-91.9931,0100,13.70,9.01,16.3973,56.6685
1987-04-09 02:00:00 UTC,2446894.583333,27.4683,-91.9931,0100,14.25,7.05,15.8986,63.6767
1987-04-09 02:30:00 UTC,2446894.604167,27.4683,-91.9931,0100,13.67,6.18,15.0020,65.6730
1987-04-09 03:00:00 UTC,2446894.625000,27.4683,-91.9931,0100,13.03,7.63,15.0996,59.6480
1987-04-09 03:30:00 UTC,2446894.645833,27.4683,-91.9931,0100,11.32,7.17,13.3997,57.6501
1987-04-09 04:00:00 UTC,2446894.666667,27.4683,-91.9931,0100,11.02,6.71,12.9021,58.6631
1987-04-09 04:30:00 UTC,2446894.687500,27.4683,-91.9931,0100,10.90,7.44,13.1971,55.6838
1987-04-09 05:00:00 UTC,2446894.708333,27.4683,-91.9931,0100,9.51,7.80,12.2996,50.6418
1987-04-09 05:30:00 UTC,2446894.729167,27.4683,-91.9931,0100,10.27,6.01,11.8993,59.6638
1987-04-09 06:00:00 UTC,2446894.750000,27.4683,-91.9931,0100,9.89,6.26,11.7047,57.6677
1987-04-09 06:30:00 UTC,2446894.770833,27.4683,-91.9931,0100,9.51,7.80,12.2996,50.6418
1987-04-09 07:00:00 UTC,2446894.791667,27.4683,-91.9931,0100,8.65,8.75,12.3039,44.6707
1987-04-09 07:30:00 UTC,2446894.812500,27.4683,-91.9931,0100,9.35,9.46,13.3009,44.6649
1987-04-09 08:00:00 UTC,2446894.833333,27.4683,-91.9931,0100,9.74,10.20,14.1035,43.6785
1987-04-09 08:30:00 UTC,2446894.854167,27.4683,-91.9931,0100,9.39,9.84,13.6014,43.6595
1987-04-09 09:00:00 UTC,2446894.875000,27.4683,-91.9931,0100,9.51,10.68,14.3004,41.6834
1987-04-09 09:30:00 UTC,2446894.895833,27.4683,-91.9931,0100,9.81,10.27,14.2024,43.6877
1987-04-09 10:00:00 UTC,2446894.916667,27.4683,-91.9931,0100,7.87,11.82,14.2003,33.6565
1987-04-09 10:30:00 UTC,2446894.937500,27.4683,-91.9931,0100,9.17,11.87,14.9995,37.6874
1987-04-09 11:00:00 UTC,2446894.958333,27.4683,-91.9931,0100,10.56,13.19,16.8964,38.6810
1987-04-09 11:30:00 UTC,2446894.979167,27.4683,-91.9931,0100,9.44,13.65,16.5963,34.6668
1987-04-09 12:00:00 UTC,2446895.000000,27.4683,-91.9931,0100,10.92,13.16,17.1006,39.6855
1987-04-09 12:30:00 UTC,2446895.020833,27.4683,-91.9931,0100,9.84,14.23,17.3008,34.6637
1987-04-09 13:00:00 UTC,2446895.041667,27.4683,-91.9931,0100,10.62,12.36,16.2958,40.6699
1987-04-09 13:30:00 UTC,2446895.062500,27.4683,-91.9931,0100,10.87,13.59,17.4024,38.6547
1987-04-09 14:00:00 UTC,2446895.083333,27.4683,-91.9931,0100,13.57,10.73,17.2996,51.6661
1987-04-09 14:30:00 UTC,2446895.104167,27.4683,-91.9931,0100,13.09,11.92,17.7041,47.6784
1987-04-09 15:00:00 UTC,2446895.125000,27.4683,-91.9931,0100,11.46,12.01,16.6004,43.6576
1987-04-09 15:30:00 UTC,2446895.145833,27.4683,-91.9931,0100,13.09,12.79,18.3012,45.6641
1987-04-09 16:00:00 UTC,2446895.166667,27.4683,-91.9931,0100,12.38,12.09,17.3041,45.6790
1987-04-09 16:30:00 UTC,2446895.187500,27.4683,-91.9931,0100,13.42,14.56,19.8013,42.6669
1987-04-09 17:00:00 UTC,2446895.208333,27.4683,-91.9931,0100,12.81,10.87,16.8004,49.6835
1987-04-09 17:30:00 UTC,2446895.229167,27.4683,-91.9931,0100,13.16,12.86,18.4001,45.6606
1987-04-09 18:00:00 UTC,2446895.250000,27.4683,-91.9931,0100,13.82,13.04,19.0009,46.6634
1987-04-09 18:30:00 UTC,2446895.270833,27.4683,-91.9931,0100,13.09,12.79,18.3012,45.6641
1987-04-09 19:00:00 UTC,2446895.291667,27.4683,-91.9931,0100,13.82,12.59,18.6949,47.6665
1987-04-09 19:30:00 UTC,2446895.312500,27.4683,-91.9931,0100,14.20,11.23,18.1039,51.6615
1987-04-09 20:00:00 UTC,2446895.333333,27.4683,-91.9931,0100,14.03,11.91,18.4035,49.6722
1987-04-09 20:30:00 UTC,2446895.354167,27.4683,-91.9931,0100,13.45,9.89,16.6947,53.6724
1987-04-09 21:00:00 UTC,2446895.375000,27.4683,-91.9931,0100,16.02,8.64,18.2014,61.6609
1987-04-09 21:30:00 UTC,2446895.395833,27.4683,-91.9931,0100,16.58,6.47,17.7977,68.6828
1987-04-09 22:00:00 UTC,2446895.416667,27.4683,-91.9931,0100,16.79,4.92,17.4960,73.6677
1987-04-09 22:30:00 UTC,2446895.437500,27.4683,-91.9931,0100,17.09,5.33,17.9019,72.6784
1987-04-09 23:00:00 UTC,2446895.458333,27.4683,-91.9931,0100,16.69,6.18,17.7974,69.6813
1987-04-09 23:30:00 UTC,2446895.479167,27.4683,-91.9931,0100,16.87,2.77,17.0959,80.6754
1987-04-10 00:00:00 UTC,2446895.500000,27.4683,-91.9931,0100,15.54,2.83,15.7956,79.6789
1987-04-10 00:30:00 UTC,2446895.520833,27.4683,-91.9931,0100,15.55,-1.27,15.6018,94.6691
1987-04-10 01:00:00 UTC,2446895.541667,27.4683,-91.9931,0100,14.49,-2.47,14.6990,99.6738
1987-04-10 01:30:00 UTC,2446895.562500,27.4683,-91.9931,0100,14.47,-1.95,14.6008,97.6750
1987-04-10 02:00:00 UTC,2446895.583333,27.4683,-91.9931,0100,14.58,-3.54,15.0036,103.6472
1987-04-10 02:30:00 UTC,2446895.604167,27.4683,-91.9931,0100,14.63,-3.29,14.9954,102.6739
1987-04-10 03:00:00 UTC,2446895.625000,27.4683,-91.9931,0100,14.27,-4.27,14.8952,106.6587
1987-04-10 03:30:00 UTC,2446895.645833,27.4683,-91.9931,0100,13.37,-3.00,13.7024,102.6467
1987-04-10 04:00:00 UTC,2446895.666667,27.4683,-91.9931,0100,13.93,-3.65,14.4003,104.6828
1987-04-10 04:30:00 UTC,2446895.687500,27.4683,-91.9931,0100,13.80,-3.36,14.2032,103.6840
1987-04-10 05:00:00 UTC,2446895.708333,27.4683,-91.9931,0100,12.83,-2.65,13.1008,101.6702
1987-04-10 05:30:00 UTC,2446895.729167,27.4683,-91.9931,0100,13.48,-1.82,13.6023,97.6893
1987-04-10 06:00:00 UTC,2446895.750000,27.4683,-91.9931,0100,12.16,-0.99,12.2002,94.6544
1987-04-10 06:30:00 UTC,2446895.770833,27.4683,-91.9931,0100,11.99,-0.35,11.9951,91.6720
1987-04-10 07:00:00 UTC,2446895.791667,27.4683,-91.9931,0100,12.00,-0.14,12.0008,90.6684
1987-04-10 07:30:00 UTC,2446895.812500,27.4683,-91.9931,0100,11.40,0.07,11.4002,89.6482
1987-04-10 08:00:00 UTC,2446895.833333,27.4683,-91.9931,0100,11.53,1.28,11.6008,83.6653
1987-04-10 08:30:00 UTC,2446895.854167,27.4683,-91.9931,0100,11.41,1.47,11.5043,82.6588
1987-04-10 09:00:00 UTC,2446895.875000,27.4683,-91.9931,0100,10.90,2.99,11.3027,74.6604
1987-04-10 09:30:00 UTC,2446895.895833,27.4683,-91.9931,0100,11.05,2.82,11.4042,75.6835
1987-04-10 10:00:00 UTC,2446895.916667,27.4683,-91.9931,0100,11.28,3.09,11.6956,74.6804
1987-04-10 10:30:00 UTC,2446895.937500,27.4683,-91.9931,0100,11.17,3.49,11.7025,72.6489
1987-04-10 11:00:00 UTC,2446895.958333,27.4683,-91.9931,0100,10.65,3.12,11.0976,73.6716
1987-04-10 11:30:00 UTC,2446895.979167,27.4683,-91.9931,0100,9.47,3.51,10.0996,69.6631
1987-04-10 12:00:00 UTC,2446896.000000,27.4683,-91.9931,0100,11.17,3.49,11.7025,72.6489
1987-04-10 12:30:00 UTC,2446896.020833,27.4683,-91.9931,0100,9.67,4.58,10.6998,64.6564
1987-04-10 13:00:00 UTC,2446896.041667,27.4683,-91.9931,0100,10.01,4.32,10.9024,66.6565
1987-04-10 13:30:00 UTC,2446896.062500,27.4683,-91.9931,0100,9.24,4.98,10.4966,61.6771
1987-04-10 14:00:00 UTC,2446896.083333,27.4683,-91.9931,0100,9.04,5.72,10.6977,57.6767
1987-04-10 14:30:00 UTC,2446896.104167,27.4683,-91.9931,0100,8.14,5.98,10.1005,53.6974
1987-04-10 15:00:00 UTC,2446896.125000,27.4683,-91.9931,0100,8.59,6.55,10.8023,52.6740
1987-04-10 15:30:00 UTC,2446896.145833,27.4683,-91.9931,0100,8.80,5.15,10.1962,59.6627
1987-04-10 16:00:00 UTC,2446896.166667,27.4683,-91.9931,0100,10.48,4.96,11.5945,64.6726
1987-04-10 16:30:00 UTC,2446896.187500,27.4683,-91.9931,0100,8.44,5.55,10.1013,56.6718
1987-04-10 17:00:00 UTC,2446896.208333,27.4683,-91.9931,0100,6.56,3.84,7.6013,59.6567
1987-04-10 17:30:00 UTC,2446896.229167,27.4683,-91.9931,0100,11.13,3.26,11.5976,73.6746
1987-04-10 18:00:00 UTC,2446896.250000,27.4683,-91.9931,0100,8.72,3.23,9.2990,69.6747
1987-04-10 18:30:00 UTC,2446896.270833,27.4683,-91.9931,0100,12.35,1.15,12.4034,84.6801
1987-04-10 19:00:00 UTC,2446896.291667,27.4683,-91.9931,0100,12.76,0.97,12.7968,85.6528
1987-04-10 19:30:00 UTC,2446896.312500,27.4683,-91.9931,0100,13.74,1.28,13.7995,84.6778
1987-04-10 20:00:00 UTC,2446896.333333,27.4683,-91.9931,0100,14.00,-0.16,14.0009,90.6548
1987-04-10 20:30:00 UTC,2446896.354167,27.4683,-91.9931,0100,12.59,-0.59,12.6038,92.6831
1987-04-10 21:00:00 UTC,2446896.375000,27.4683,-91.9931,0100,14.38,-0.67,14.3956,92.6676
1987-04-10 21:30:00 UTC,2446896.395833,27.4683,-91.9931,0100,13.77,-0.88,13.7981,93.6566
1987-04-10 22:00:00 UTC,2446896.416667,27.4683,-91.9931,0100,13.55,-1.11,13.5954,94.6831
1987-04-10 22:30:00 UTC,2446896.437500,27.4683,-91.9931,0100,14.43,-2.20,14.5967,98.6686
1987-04-10 23:00:00 UTC,2446896.458333,27.4683,-91.9931,0100,15.16,-3.69,15.6026,103.6800
1987-04-10 23:30:00 UTC,2446896.479167,27.4683,-91.9931,0100,14.77,-3.59,15.2000,103.6614
1987-04-11 00:00:00 UTC,2446896.500000,27.4683,-91.9931,0100,14.60,-5.51,15.6051,110.6764
1987-04-11 00:30:00 UTC,2446896.520833,27.4683,-91.9931,0100,15.16,-5.72,16.2032,110.6719
1987-04-11 01:00:00 UTC,2446896.541667,27.4683,-91.9931,0100,13.91,-4.43,14.5984,107.6654
1987-04-11 01:30:00 UTC,2446896.562500,27.4683,-91.9931,0100,16.18,-7.43,17.8044,114.6650
1987-04-11 02:00:00 UTC,2446896.583333,27.4683,-91.9931,0100,14.66,-7.36,16.4038,116.6588
1987-04-11 02:30:00 UTC,2446896.604167,27.4683,-91.9931,0100,13.03,-7.43,14.9995,119.6928
1987-04-11 03:00:00 UTC,2446896.625000,27.4683,-91.9931,0100,13.99,-7.97,16.1010,119.6698
1987-04-11 03:30:00 UTC,2446896.645833,27.4683,-91.9931,0100,12.60,-7.77,14.8031,121.6607
1987-04-11 04:00:00 UTC,2446896.666667,27.4683,-91.9931,0100,12.26,-7.56,14.4035,121.6596
1987-04-11 04:30:00 UTC,2446896.687500,27.4683,-91.9931,0100,9.57,-6.38,11.5017,123.6901
1987-04-11 05:00:00 UTC,2446896.708333,27.4683,-91.9931,0100,8.98,-7.19,11.5038,128.6831
1987-04-11 05:30:00 UTC,2446896.729167,27.4683,-91.9931,0100,9.06,-6.75,11.2981,126.6873
1987-04-11 06:00:00 UTC,2446896.750000,27.4683,-91.9931,0100,9.41,-8.38,12.6005,131.6864